Regional Weather Roundup
Issued by NWS New Orleans/Baton Rouge, LA

Home | Current Version | Previous Version | Text Only | Print | Product List | Glossary Off
Versions: 1 2 3 4 5 6 7 8 9 10 11 12 13 14 15 16 17 18 19 20 21 22 23 24 25 26 27 28 29 30 31 32 33 34 35 36 37 38 39 40 41 42 43 44 45 46 47 48 49 50

905
ASUS44 KLIX 240805
RWRLIX
NEW ORLEANS REGIONAL WEATHER ROUNDUP
NATIONAL WEATHER SERVICE NEW ORLEANS LA
300 AM CDT FRI OCT 24 2014

NOTE: "FAIR" INDICATES FEW OR NO CLOUDS BELOW 12,000 FEET WITH NO
      SIGNIFICANT WEATHER AND/OR OBSTRUCTIONS TO VISIBILITY.
      SKY/WX - SKY CONDITION AND SIGNIFICANT WEATHER.
      TMP - AIR TEMPERATURE.     DP    - DEWPOINT TEMPERATURE.
      RH  - RELATIVE HUMIDITY.   PRES  - PRESSURE.
      HI  - HEAT INDEX.          WCI   - WIND CHILL INDEX.

*  THESE STATIONS ARE NOT NWS OR FAA STATIONS AND ARE NOT UNDER
   NWS QUALITY CONTROL.

LAZ038-040-048-061>063-065>067-069-240900-
SOUTHEAST LOUISIANA

CITY           SKY/WX    TMP DP  RH WIND       PRES   REMARKS
N.O. AUDUBON     N/A     60  52  75 MISG        N/A
N.O. INTL ARPT PTCLDY    61  51  70 NE9       30.07S
N.O. LAKEFRONT CLEAR     65  51  60 NE13      30.07S
N.O. DOWNTOWN*   N/A     63  45  51 N3        30.07S
SLIDELL        CLEAR     49  46  90 N5        30.07S
BATON ROUGE    CLEAR     53  49  86 NE3       30.09F
BOOTHVILLE     CLEAR     67  58  72 VRB6      30.05F
BELLE CHASSE   CLEAR     51  48  89 N5        30.07R
BOGALUSA*        N/A     49  46  88 N3        30.10S
NEW ROADS*       N/A     48  47  96 CALM      30.10S
GONZALES*        N/A     54  53  97 N3        30.09S
HAMMOND*       CLEAR     50  46  87 N5        30.11R
HOUMA*         CLEAR     54  52  94 CALM      30.07S
PORT FOURCHON* SUNNY     66  57  72 N7        30.08S

$$

MSZ070-080>082-240900-
SOUTHERN MISSISSIPPI

CITY           SKY/WX    TMP DP  RH WIND       PRES   REMARKS
MCCOMB         PTCLDY    54  48  80 NE5       30.09F
GULFPORT       CLEAR     55  46  71 N6        30.06R
BILOXI         CLEAR     57  48  72 NE8       30.06S
PASCAGOULA     PTCLDY    48  46  93 CALM      30.06S

$$

COASTAL OBSERVATIONS
LAKE AND NEARSHORE STATIONS

STATION/POSITION TIME  TEMP    WIND        PRES    WAVE
                       AIR SEA DIR/SP/G            HT/PER
                 (UTC) (F)     (DEG/KT/KT) (MB)    (FT/S)
PASCAGOULA       0800   57      10/  7/  9 1017.1
WAVELAND YACHT   0800   60      20/  9/ 10 1017.3
GRAND ISLE       0800   68 73   30/  8/ 10 1018.0
SOUTHWEST PASS   0800   71 81              1017.5
NEW CANAL        0800   65 70   50/ 12/ 14 1018.4
SHELL BEACH      0800   66 67   40/ 13/ 15 1017.6

OFFSHORE STATIONS

STATION/POSITION TIME  TEMP    WIND        PRES    WAVE
                       AIR SEA DIR/SP/G            HT/PER
                 (UTC) (F)     (DEG/KT/KT) (MB)    (FT/S)
64 S DAUPHIN ISL 0651   72 78  360/  8/ 10 1017.2    3/ 7

$$




USA.gov is the U.S. government's official web portal to all federal, state and local government web resources and services.